Left ArrowRight Arrow

Hourly Observations for May 28, 2024

Temp ( °F °C ) Dew Point ( °F °C ) Humidity (%) Winds ( mph kmh ) Pressure ( in mb ) Visibility ( mi km ) Precip ( " mm )
12:53 am 00:53 Clear 76 24.4 69 20.6 79 79 Calm 29.90 1013 10 16 0.00 0.00
1:53 am 01:53 Clear 75 23.9 69 20.6 82 82 SW 3 6 29.91 1013 10 16 0.00 0.00
2:53 am 02:53 Clear 75 23.9 69 20.6 82 82 WSW 6 9 29.90 1013 10 16 0.00 0.00
3:53 am 03:53 Clear 75 23.9 69 20.6 82 82 WSW 6 9 29.89 1012 10 16 0.00 0.00
4:53 am 04:53 Clear 73 22.8 69 20.6 87 87 SW 7 11 29.90 1013 10 16 0.00 0.00
5:53 am 05:53 Clear 72 22.2 69 20.6 91 91 WSW 6 9 29.91 1013 9 14 0.00 0.00
6:53 am 06:53 Sunny 72 22.2 69 20.6 91 91 WNW 6 9 29.93 1014 7 11 0.00 0.00
7:53 am 07:53 Mostly Cloudy 74 23.3 69 20.6 85 85 VRB 5 7 29.95 1014 8 13 0.00 0.00
8:53 am 08:53 Sunny 78 25.6 69 20.6 74 74 NW 5 7 29.96 1014 10 16 0.00 0.00
9:53 am 09:53 Sunny 81 27.2 67 19.4 62 62 VRB 7 11 29.95 1014 10 16 0.00 0.00
10:53 am 10:53 Sunny 84 28.9 64 17.8 51 51 VRB 5 7 29.94 1014 10 16 0.00 0.00
11:53 am 11:53 Sunny 86 30 62 16.7 45 45 NNE 6 9 29.94 1014 10 16 0.00 0.00
12:53 pm 12:53 Partly Cloudy 88 31.1 61 16.1 41 41 undefined N/A 29.93 1014 10 16 0.00 0.00
1:53 pm 13:53 Sunny 89 31.7 61 16.1 39 39 NW 9 15 29.91 1013 10 16 0.00 0.00
2:53 pm 14:53 Sunny 90 32.2 58 14.4 34 34 NW 9 15 29.91 1013 10 16 0.00 0.00
3:53 pm 15:53 Sunny 92 33.3 53 11.7 27 27 N 9 15 29.90 1013 10 16 0.00 0.00
4:53 pm 16:53 Sunny 91 32.8 53 11.7 28 28 NNW 8 13 29.89 1012 10 16 0.00 0.00
5:53 pm 17:53 Sunny 90 32.2 52 11.1 27 27 WNW 10 17 29.89 1012 10 16 0.00 0.00
6:53 pm 18:53 Mostly Cloudy 89 31.7 53 11.7 29 29 VRB 6 9 29.89 1012 10 16 0.00 0.00
7:53 pm 19:53 Partly Cloudy 86 30 57 13.9 37 37 VRB 3 6 29.91 1013 10 16 0.00 0.00
8:53 pm 20:53 Mostly Clear 81 27.2 57 13.9 44 44 Calm 29.92 1013 10 16 0.00 0.00
9:53 pm 21:53 Clear 78 25.6 58 14.4 50 50 Calm 29.95 1014 10 16 0.00 0.00
10:53 pm 22:53 Clear 76 24.4 59 15 56 56 Calm 29.97 1015 10 16 0.00 0.00
11:53 pm 23:53 Clear 74 23.3 59 15 60 60 Calm 29.97 1015 10 16 0.00 0.00

Powered by Vaisala Xweather